Simultaneous Nadir Overpasses (SNOs) Predictions

Prediction of SNOs between METOP-B and TERRA Satellite Orbit:

Table of predicted SNOs for the next 14.0 days since TLE Epoch: 1/14/2017
Index Date (METOP-B) Time (METOP-B) Lat,Lon (METOP-B) SZA (METOP-B ) Date (TERRA) Time (TERRA) Lat,Lon (TERRA) SZA (TERRA ) Distance(km) Time Diff (sec)
1 01/14/2017 13:46:34 -81.30,-159.46 75.11 01/14/2017 13:47:13 -81.30,-159.59 75.11 2.25 39
2 01/14/2017 14:37:14 81.30, 8.04 104.90 01/14/2017 14:36:39 81.31, 8.12 104.90 1.42 35
3 01/17/2017 09:20:56 -81.29, -93.58 75.73 01/17/2017 09:21:27 -81.29, -93.40 75.70 3.02 31
4 01/17/2017 10:11:35 81.30, 74.30 104.33 01/17/2017 10:10:53 81.29, 74.28 104.30 0.94 42
5 01/20/2017 04:55:16 -81.30, -26.94 76.31 01/20/2017 04:55:40 -81.29, -26.95 76.31 0.55 24
6 01/
